www.pogodaiklimat.ru

Погода и климат >> Архив погоды >> Россия >> Хабаровский край >> Георгиевка


ПОГОДА в Георгиевке

  • Прогноз погоды в Георгиевке
  • Монитор погоды в Георгиевке
  • Климат города

АРХИВ ПОГОДЫ в Георгиевке

Время (UTC), дата Ветер
(напр.,м/с)
 
Видим.   Явления Облачность Т
(С)
Тd
(С)
f
(%)
Тe
(С)
Тes
(С)
Комфортность P
(гПа)
Po
(гПа)
Тmin
(С)
Tmax
(С)
R
(мм)
R24
(мм)
S
(см)
00 18.05 Ю 2 20 км 10/3 600 м
[Sc Cs]
+20.9 +12.7 59 +24 +30 комфорт 1002.5 994.4
03 18.05 ЮЗ 5 20 км 8/8 600 м
[Cb cap]
+27.4 +7.1 28 +27 +29 жарко 1001.4 993.5
06 18.05 ЮЗ 3
{11}
20 км 8/3 600 м
[Cb cap Ac cast Ci fib]
+27.7 +7.0 27 +27 +31 жарко 1000.1 992.2
09 18.05 Ю 1 20 км 10 баллов +24.8 +8.7 36 +25 +25 комфорт 1000.0 992.0 +28.5
12 18.05 ЮВ 1 10 км 4/4 600 м
[Sc]
+19.7 +9.7 52 +22 +22 комфорт 999.7 991.6
15 18.05 Ю 1 10 км ясно +16.7 +10.5 67 +18 +18 999.2 991.1
18 18.05 Ю 3 10 км ясно +20.2 +7.3 43 +21 +21 комфорт 997.3 989.3
21 18.05 Ю 4 20 км 4 балла +20.1 +8.4 47 +21 +22 комфорт 997.4 989.3 +16.7
00 19.05 Ю 4 20 км 6 баллов +23.9 +9.8 41 +25 +28 комфорт 995.9 988.0
03 19.05 ЮЗ 5 20 км 7 баллов +27.6 +13.1 41 +29 +32 жарко 995.8 988.0
06 19.05 ЮЗ 7 20 км 9 баллов +28.9 +15.4 44 +32 +32 душно 995.8 988.0
09 19.05 З 7-11
{16}
20 км 8/5 600 м
[Cb cap Ac trans]
+23.0 +10.5 45 +22 +22 комфорт 999.4 991.4 +29.0
12 19.05 З 5 10 км 4 балла +17.9 +4.8 42 +18 +18 1004.2 996.0
15 19.05 С 1 10 км ясно +14.6 +4.5 51 +15 +15 1007.2 998.9
18 19.05 З 3 10 км 3/0
[Ci fib]
+11.2 +3.0 57 +10 +10 1010.1 1001.7
21 19.05 З 5 20 км 2 балла +11.7 +2.2 52 +9 +10 1013.7 1005.3 +8.6
00 20.05 З 6 20 км 10 баллов +15.7 +0.3 35 +14 +14 1015.0 1006.7
03 20.05 З 5 20 км 8/0
[Ci fib]
+18.6 -2.3 24 +18 +26 1014.5 1006.3
06 20.05 З 4 20 км 9/4 600 м
[Cu hum Ci]
+19.0 -0.9 26 +19 +23 1014.2 1006.0
12 20.05 Ю 1 10 км 3/3 600 м
[Sc]
+12.9 +3.6 53 +13 +13 1014.5 1006.1
15 20.05 ЮЗ 1 10 км 1/1 600 м
[Sc]
+9.9 +4.4 69 +10 +10 1014.9 1006.4
18 20.05 Ю 1 10 км 5/0
[Ci sp]
+8.0 +5.7 85 +7 +7 1014.5 1006.0
21 20.05 штиль 0 20 км 9 баллов +9.8 +7.7 87 +9 +9 1016.5 1008.0 +7.5
00 21.05 З 3 20 км 9/0
[Ac lent Cc]
+16.1 -1.6 30 +16 +21 1016.1 1007.7
03 21.05 З 7 20 км 7 баллов +17.7 -3.1 24 +17 +18 1016.3 1008.0
06 21.05 З 6 20 км 6 баллов +17.9 -4.1 22 +17 +19 1015.0 1006.7
09 21.05 З 3 20 км 10 баллов +15.5 -5.0 24 +15 +15 1015.1 1006.7 +17.9
12 21.05 штиль 0 10 км 9/0
[Ac As]
+8.7 +1.5 61 +8 +8 1016.5 1008.0
15 21.05 З 1 10 км 10/0
[Ac As Cs]
+4.6 +2.0 83 +3 +3 1017.3 1008.6
18 21.05 штиль 0 10 км 8/0
[Ac lent Ci fib]
+1.9 +0.8 92 +1 +1 1018.0 1009.2
21 21.05 Ю 1 20 км 6 баллов +5.9 +1.6 74 +5 +6 1020.7 1012.0 +0.9
00 22.05 З 3 20 км 3/0
[Ci fib]
+15.2 -6.2 22 +15 +24 1019.0 1010.6
03 22.05 З 2 20 км 9/0
[Ac As Ci fib]
+17.1 -5.1 21 +18 +28 1017.3 1009.0
06 22.05 З 4 20 км 10/0
[Cs]
+18.2 -4.9 20 +18 +24 1015.4 1007.2
09 22.05 ЮЗ 1 20 км 10 баллов +15.9 -1.7 30 +17 +17 1015.0 1006.7 +18.4
12 22.05 штиль 0 20 км 10/6 600 м
[Sc Cs]
+10.8 +1.8 54 +11 +11 1014.4 1005.9
15 22.05 штиль 0 10 км 10/0
[As op]
+6.2 +2.7 78 +5 +5 1013.7 1005.1
18 22.05 штиль 0 10 км 10/5
[Sc As op]
+5.3 +3.2 86 +4 +4 1012.6 1004.0
21 22.05 СВ 1 20 км 10 баллов +6.5 +3.5 81 +6 +6 1012.6 1004.0 +4.9
00 23.05 Ю 1 20 км 10/5 600 м
[Sc As op]
+9.2 +4.8 74 +9 +10 1011.0 1002.5
03 23.05 СВ 1 4000 м слабый дождь 10/6 600 м
[Sc As op]
+8.6 +6.9 89 +8 +10 1009.2 1000.7
06 23.05 В 1 4000 м слабый дождь 10/6 600 м
[Sc As op]
+10.3 +8.1 86 +10 +11 1007.1 998.7
09 23.05 СВ 1 4000 м слабый дождь 10 баллов +9.6 +8.4 92 +9 +9 1007.1 998.7 +10.4 5
12 23.05 С 1 4000 м слабый дождь 10 баллов +8.3 +7.5 95 +7 +7 1007.2 998.7
15 23.05 штиль 0 10 км {дождь} 8/6 600 м
[Cb cap Ac lent]
+7.9 +7.3 96 +7 +7 1005.3 996.8
18 23.05 ЮВ 1 4000 м дымка {дождь} 3/0
[Ci fib]
+6.8 +6.2 96 +6 +6 1005.0 996.5
21 23.05 З 1 20 км 10 баллов +6.8 +6.4 97 +6 +6 1005.8 997.3 +6.2 5
00 24.05 В 2 4000 м слабый дождь 10 баллов +9.1 +7.9 92 +7 +7 1005.7 997.3
03 24.05 В 1 4000 м слабый дождь 10/10 300 м
[Frnb Ns]
+10.8 +9.2 90 +10 +10 1004.0 995.7
06 24.05 ЮЗ 3 4000 м слабый ливневой дождь 10/10 600 м
[Cb cap]
+10.3 +8.3 87 +8 +8 1004.4 996.0
09 24.05 штиль 0 4000 м слабый ливневой дождь 10 баллов +9.9 +8.3 90 +9 +9 1007.1 998.7 +11.8 6
12 24.05 ЮЗ 1 4000 м слабый ливневой дождь 10 баллов +8.9 +8.0 94 +8 +8 1008.5 1000.0
15 24.05 ЮЗ 1 10 км {ливн. осадки} 10/10 600 м
[Cb cap]
+7.9 +7.1 95 +7 +7 1008.3 999.8
18 24.05 Ю 2 10 км {ливн. осадки} 10/10 600 м
[Cb cap]
+7.0 +5.2 88 +5 +5 1008.9 1000.4

 

Местоположение метеостанции Георгиевка (Хабаровский край, Россия): широта 47.95 долгота 135.20 высота над уровнем моря 70 м.

В архиве по умолчанию представлена погода в Георгиевке за последнюю неделю. Архивные данные за месяц целиком и за предыдущие месяцы, начиная с января 2011 года, Вы можете получить, выбрав интересующий диапазон дат из раскрывающегося списка и нажав кнопку "Ввод!".

Внимание! Время в таблицах - всемирное. Для получения местного времени необходимо прибавить поправку, которая в Георгиевке равна 10 ч.

Смотрите также архив погоды в соседних городах и на ближайших метеорологических станциях:

Погода в Бичевой (Хабаровский край, Россия) (36 км)
Погода в Вяземском (Хабаровский край, Россия) (61 км)
Погода в Хабаровске Агромет (Хабаровский край, Россия) (64 км)
Погода в Хабаровске (Хабаровский край, Россия) (64 км)
Погода в Гвасюгах (Хабаровский край, Россия) (74 км)
Погода в Елабуге (Хабаровский край, Россия) (106 км)
Погода в Лермонтовке (Хабаровский край, Россия) (112 км)
Погода в Смидовиче (Еврейская автономная область, Россия) (126 км)
Погода в Литовко (Хабаровский край, Россия) (143 км)
Погода в Бикине (Хабаровский край, Россия) (148 км)

Пояснения к столбцам:

Ветер - указаны скорость ветра в м/с - средняя за 10 мин, порывы в срок и между сроками (в фигурных скобках) и направление, откуда дует ветер: С - северный, СВ - северо-восточный, В - восточный, ЮВ - юго-восточный, Ю - южный, ЮЗ - юго-западный, З - западный, СЗ - северо-западный.
Видимость - горизонтальная дальность видимости в метрах или километрах. При видимости от 1 до 10 км при отсутствии осадков обычно наблюдается дымка, при ухудшении видимости до 1 км и менее - туман. В сухую погоду видимость может ухудшаться дымом, пылью или мглою.
Явления - указаны атмосферные явления, наблюдавшиеся в срок или в последний час перед сроком; фигурными скобками обозначены явления, наблюдавшиеся между сроками (за 1-3 часа до срока); квадратными скобками обозначены град или гололедные отложения с указанием их диаметра в мм.
Облачность - указаны через наклонную черту общая и нижняя облачность в баллах и высота нижней границы облаков в метрах; квадратными скобками обозначены формы облаков: Ci - перистые, Cs - перисто-слоистые, Cc - перисто-кучевые, Ac - высококучевые, As - высокослоистые, Sc - слоисто-кучевые, Ns - слоисто-дождевые, Cu - кучевые, Cb - кучево-дождевые. Подробнее классификацию облаков см. в Атласе облаков (PDF).
T - Температура воздуха - температура, измеренная на высоте 2 м над землей.
Td - Температура точки росы - температура, при понижении до которой содержащийся в воздухе водяной пар достигнет насыщения.
f - Относительная влажность воздуха - влажноcть воздуха, измеренная на высоте 2 м над землей.
Te - Эффективная температура - температура, которую ощущает одетый по сезону человек в тени. Характеристика душности погоды. При расчете учитывается влияние влажности воздуха и скорости ветра на теплоощущения человека.
Tes - Эффективная температура на солнце - температура, которую ощущает человек, с поправкой на солнечный нагрев. Характеристика знойности погоды. Зависит от высоты солнца над горизонтом, облачности и скорости ветра. Ночью, в пасмурную погоду, а также при ветре 12 м/с и более поправка равна нулю.
P - Атмосферное давление - приведенное к уровню моря атмосферное давление.
Po - Атмосферное давление - измеренное на уровне метеостанции атмосферное давление.
Tmin - Минимальная температура - минимум температуры воздуха на высоте 2 м над землей.
Tmax - Максимальная температура - максимум температуры воздуха на высоте 2 м над землей.
R - Количество осадков - Количество выпавших осадков за период времени, мм. При наведении курсора мыши на число - период времени, за который выпало указанное количество осадков.
R24 - Количество осадков - Количество выпавших осадков за 24 часа, мм.
S - Снежный покров - Высота снежного покрова, см. При наведении курсора мыши на число - состояние снежного покрова и степень покрытия местности в баллах.